This demonstration page uses our WeatherBlox Daily Observations layout. Learn more.

Left ArrowRight Arrow

Hourly Observations for January 6, 2017

Temp ( °F °C ) Dew Point ( °F °C ) Humidity (%) Winds ( mph kmh ) Pressure ( in mb ) Visibility ( mi km ) Precip ( " mm )
12:15 am 00:15 Clear -9 -22.5 -15 -26.3 71 71 NW 8 13 30.48 1032 10 16 0.00 0.00
12:35 am 00:35 Clear -9 -22.8 -15 -26.3 73 73 W 6 9 30.48 1032 10 16 0.00 0.00
12:55 am 00:55 Clear -7 -21.5 -13 -24.8 75 75 W 5 7 30.45 1031 10 16 0.00 0.00
1:15 am 01:15 Clear -8 -22 -14 -25.7 72 72 W 6 9 30.48 1032 10 16 0.00 0.00
1:35 am 01:35 Clear -9 -23 -16 -26.5 73 73 W 6 9 30.48 1032 10 16 0.00 0.00
1:55 am 01:55 Clear -9 -22.8 -15 -26.1 75 75 WNW 7 11 30.48 1032 10 16 0.00 0.00
2:15 am 02:15 Clear -11 -23.7 -17 -27.2 73 73 WNW 5 7 30.48 1032 10 16 0.00 0.00
2:35 am 02:35 Clear -12 -24.5 -18 -27.8 74 74 Calm 30.50 1033 10 16 0.00 0.00
2:55 am 02:55 Clear -11 -24 -17 -27.2 75 75 Calm 30.50 1033 10 16 0.00 0.00
3:15 am 03:15 Clear -11 -24 -16 -26.9 77 77 WSW 5 7 30.50 1033 10 16 0.00 0.00
3:35 am 03:35 Clear -9 -22.5 -14 -25.8 75 75 Calm 30.50 1033 10 16 0.00 0.00
3:55 am 03:55 Clear -10 -23.1 -15 -26.2 76 76 W 5 7 30.50 1033 10 16 0.00 0.00
4:15 am 04:15 Clear -9 -22.9 -15 -26.1 75 75 W 6 9 30.50 1033 10 16 0.00 0.00
4:35 am 04:35 Clear -6 -21.1 -12 -24.5 74 74 W 6 9 30.48 1032 10 16 0.00 0.00
4:55 am 04:55 Clear -6 -21.3 -12 -24.6 75 75 W 5 7 30.45 1031 10 16 0.00 0.00
5:15 am 05:15 Clear -5 -20.7 -11 -24 75 75 WSW 6 9 30.48 1032 10 16 0.00 0.00
5:35 am 05:35 Clear -6 -21 -12 -24.5 74 74 W 6 9 30.45 1031 10 16 0.00 0.00
5:55 am 05:55 Clear -6 -21.2 -13 -24.8 73 73 W 6 9 30.48 1032 10 16 0.00 0.00
6:15 am 06:15 Clear -8 -22.4 -15 -26 73 73 W 6 9 30.50 1033 10 16 0.00 0.00
6:35 am 06:35 Clear -9 -22.7 -15 -26.2 73 73 WNW 6 9 30.48 1032 10 16 0.00 0.00
6:55 am 06:55 Clear -10 -23.3 -16 -26.6 74 74 W 5 7 30.50 1033 10 16 0.00 0.00
7:15 am 07:15 Clear -10 -23.1 -15 -26.3 75 75 W 6 9 30.50 1033 10 16 0.00 0.00
7:35 am 07:35 Clear -10 -23.2 -16 -26.5 74 74 W 6 9 30.50 1033 10 16 0.00 0.00
7:55 am 07:55 Clear -10 -23.3 -16 -26.5 75 75 W 6 9 30.50 1033 10 16 0.00 0.00
8:15 am 08:15 Sunny -10 -23.3 -16 -26.6 74 74 W 6 9 30.50 1033 10 16 0.00 0.00
8:35 am 08:35 Sunny -11 -23.9 -17 -27.4 73 73 WNW 3 6 30.53 1034 10 16 0.00 0.00
8:55 am 08:55 Sunny -9 -23 -16 -26.5 73 73 WNW 7 11 30.53 1034 10 16 0.00 0.00
9:15 am 09:15 Sunny -9 -22.5 -15 -26.1 73 73 WNW 6 9 30.53 1034 10 16 0.00 0.00
9:35 am 09:35 Sunny -8 -22 -14 -25.7 72 72 WNW 6 9 30.53 1034 10 16 0.00 0.00
9:55 am 09:55 Sunny -5 -20.6 -12 -24.4 72 72 NW 6 9 30.50 1033 10 16 0.00 0.00
10:15 am 10:15 Sunny -2 -18.9 -9 -23 70 70 NW 7 11 30.50 1033 10 16 0.00 0.00
10:35 am 10:35 Sunny 0 -17.9 -8 -22.4 68 68 NW 8 13 30.50 1033 10 16 0.00 0.00
10:55 am 10:55 Sunny 1 -17 -7 -21.7 67 67 NW 8 13 30.50 1033 10 16 0.00 0.00
11:15 am 11:15 Sunny 3 -16.3 -6 -21.3 66 66 NW 8 13 30.50 1033 10 16 0.00 0.00
11:35 am 11:35 Sunny 4 -15.6 -6 -21 64 64 WNW 7 11 30.48 1032 10 16 0.00 0.00
11:55 am 11:55 Sunny 5 -14.9 -5 -20.5 63 63 WNW 5 7 30.48 1032 10 16 0.00 0.00
12:15 pm 12:15 Sunny 7 -14.1 -3 -19.7 63 63 WNW 5 7 30.45 1031 10 16 0.00 0.00
12:35 pm 12:35 Sunny 9 -12.8 -2 -18.8 61 61 W 3 6 30.42 1030 10 16 0.00 0.00
12:55 pm 12:55 Sunny 11 -11.9 -1 -18.3 59 59 Calm 30.42 1030 10 16 0.00 0.00
1:15 pm 13:15 Sunny 12 -11 1 -17.2 61 61 Calm 30.42 1030 10 16 0.00 0.00
1:35 pm 13:35 Sunny 14 -10.2 2 -16.4 61 61 S 3 6 30.39 1029 10 16 0.00 0.00
1:55 pm 13:55 Sunny 14 -9.9 3 -16.1 61 61 SW 5 7 30.39 1029 10 16 0.00 0.00
2:15 pm 14:15 Sunny 14 -9.8 4 -15.8 62 62 SW 7 11 30.36 1028 10 16 0.00 0.00
2:35 pm 14:35 Sunny 15 -9.7 4 -15.6 62 62 SW 7 11 30.39 1029 10 16 0.00 0.00
2:55 pm 14:55 Sunny 15 -9.5 4 -15.8 60 60 SW 6 9 30.39 1029 10 16 0.00 0.00
3:15 pm 15:15 Sunny 16 -9 3 -15.9 58 58 SW 7 11 30.39 1029 10 16 0.00 0.00
3:35 pm 15:35 Sunny 17 -8.6 3 -16 55 55 SW 8 13 30.39 1029 10 16 0.00 0.00
3:55 pm 15:55 Sunny 16 -8.7 3 -16.1 55 55 SW 7 11 30.39 1029 10 16 0.00 0.00
4:15 pm 16:15 Sunny 16 -8.7 2 -16.5 54 54 SW 6 9 30.39 1029 10 16 0.00 0.00
4:35 pm 16:35 Sunny 16 -8.7 2 -16.6 53 53 SW 7 11 30.39 1029 10 16 0.00 0.00
4:55 pm 16:55 Sunny 15 -9.3 3 -16.3 57 57 SW 5 7 30.39 1029 10 16 0.00 0.00
5:15 pm 17:15 Sunny 14 -9.9 3 -16.3 60 60 SW 6 9 30.39 1029 10 16 0.00 0.00
5:35 pm 17:35 Clear 13 -10.7 2 -16.5 63 63 SW 7 11 30.42 1030 10 16 0.00 0.00
5:55 pm 17:55 Clear 12 -11.2 2 -16.6 65 65 SW 6 9 30.45 1031 10 16 0.00 0.00
6:15 pm 18:15 Clear 11 -11.9 1 -17 66 66 SW 6 9 30.45 1031 10 16 0.00 0.00
6:35 pm 18:35 Clear 10 -12.5 1 -17.3 68 68 SW 7 11 30.45 1031 10 16 0.00 0.00
6:55 pm 18:55 Clear 9 -12.8 1 -17.5 68 68 SW 6 9 30.45 1031 10 16 0.00 0.00
7:15 pm 19:15 Clear 8 -13.1 0 -17.6 69 69 SW 7 11 30.50 1033 10 16 0.00 0.00
7:35 pm 19:35 Clear 10 -12.5 1 -17.1 69 69 SW 7 11 30.48 1032 10 16 0.00 0.00
7:55 pm 19:55 Clear 12 -10.9 3 -16.2 65 65 WSW 8 13 30.48 1032 10 16 0.00 0.00
8:15 pm 20:15 Clear 12 -11.3 2 -16.6 65 65 WSW 5 7 30.48 1032 10 16 0.00 0.00
8:35 pm 20:35 Clear 12 -11 2 -16.5 64 64 WSW 6 9 30.48 1032 10 16 0.00 0.00
8:55 pm 20:55 Clear 10 -12.4 1 -17.4 67 67 WSW 3 6 30.48 1032 10 16 0.00 0.00
9:15 pm 21:15 Clear 10 -12 2 -16.6 69 69 WSW 7 11 30.48 1032 10 16 0.00 0.00
9:35 pm 21:35 Clear 11 -11.6 2 -16.8 66 66 W 7 11 30.48 1032 10 16 0.00 0.00
9:55 pm 21:55 Clear 10 -12.5 1 -17.5 67 67 W 9 15 30.50 1033 10 16 0.00 0.00
10:15 pm 22:15 Clear 10 -12.2 1 -17.5 65 65 W 9 15 30.50 1033 10 16 0.00 0.00
10:35 pm 22:35 Clear 11 -11.9 0 -18 61 61 W 10 17 30.50 1033 10 16 0.00 0.00
10:55 pm 22:55 Clear 8 -13.3 -2 -18.8 64 64 W 7 11 30.53 1034 10 16 0.00 0.00
11:15 pm 23:15 Clear 10 -12.4 -1 -18.4 61 61 WNW 7 11 30.50 1033 10 16 0.00 0.00
11:35 pm 23:35 Clear 10 -12.5 -1 -18.3 62 62 WNW 8 13 30.50 1033 10 16 0.00 0.00
11:55 pm 23:55 Clear 8 -13.2 -2 -18.7 64 64 WNW 8 13 30.56 1035 10 16 0.00 0.00

Powered by AerisWeather